This is the latest recevied weather packets stored in our database for station/object SP3ZBZ-13. If no packets are shown the sender has not sent any weather packets the latest 10 day(s).
| Time | Temp. | Humidity | Pressure | Rain* | Wind** | Luminosity | Snow |
|---|---|---|---|---|---|---|---|
| 1788014725 | 22.78° C | 62% | 1007.8 hPa | 8.13 mm | - | 285 W/m² | - |
| 1788013824 | 22.22° C | 64% | 1007.9 hPa | 8.13 mm | - | 316 W/m² | - |
| 1788012924 | 22.22° C | 64% | 1007.9 hPa | 8.13 mm | - | 417 W/m² | - |
| 1788012022 | 22.22° C | 64% | 1007.7 hPa | 8.13 mm | - | 294 W/m² | - |
| 1788011122 | 22.22° C | 64% | 1007.6 hPa | 8.13 mm | - | 413 W/m² | - |
| 1788010221 | 21.67° C | 64% | 1007.6 hPa | 8.13 mm | - | 433 W/m² | - |
| 1788009319 | 21.67° C | 64% | 1007.6 hPa | 8.13 mm | - | 461 W/m² | - |
| 1788008418 | 21.67° C | 67% | 1007.6 hPa | 8.13 mm | - | 521 W/m² | - |
| 1788007518 | 20.56° C | 67% | 1007.5 hPa | 8.13 mm | - | 213 W/m² | - |
| 1788006617 | 21.67° C | 65% | 1007.5 hPa | 8.13 mm | - | 193 W/m² | - |
| 1788005716 | 21.67° C | 64% | 1007.4 hPa | 8.13 mm | - | 592 W/m² | - |
| 1788004814 | 21.67° C | 65% | 1007.5 hPa | 8.13 mm | - | 342 W/m² | - |
| 1788003913 | 21.67° C | 64% | 1007.5 hPa | 8.13 mm | - | 606 W/m² | - |
| 1788003012 | 21.11° C | 67% | 1007.6 hPa | 8.13 mm | - | 653 W/m² | - |
| 1788002111 | 20.56° C | 69% | 1007.7 hPa | 8.13 mm | - | 528 W/m² | - |
| 1788001210 | 20° C | 74% | 1007.7 hPa | 8.13 mm | - | 271 W/m² | - |
| 1788000309 | 19.44° C | 77% | 1007.8 hPa | 8.13 mm | - | 294 W/m² | - |
| 1787999409 | 18.89° C | 79% | 1007.9 hPa | 8.13 mm | - | 258 W/m² | - |
| 1787998507 | 18.89° C | 77% | 1007.7 hPa | 8.13 mm | - | 150 W/m² | - |
| 1787997606 | 19.44° C | 76% | 1007.6 hPa | 8.13 mm | - | 151 W/m² | - |
| 1787996705 | 19.44° C | 75% | 1007.5 hPa | 8.13 mm | - | 230 W/m² | - |
| 1787995804 | 19.44° C | 76% | 1007.3 hPa | 8.13 mm | - | 221 W/m² | - |
| 1787994903 | 19.44° C | 81% | 1007.2 hPa | 8.13 mm | - | 204 W/m² | - |
| 1787994002 | 19.44° C | 82% | 1007 hPa | 8.13 mm | - | 158 W/m² | - |
| 1787993101 | 19.44° C | 82% | 1006.9 hPa | 8.13 mm | - | 275 W/m² | - |
* Rain latest 24 hours (hover to see other rain measurements)
** Current wind speed in m/s (hover to see current wind gust speed)